Notices

What's New in latest Release from April 7th, 2021:

- Updated Glossary, including Speed of Maximum Gust, and Total Hourly Precipitation

- Updated national and regional climate services offices contacts and prices information

- Addition of station inventory lists for 1981-2010, 1971-2000, and 1961-1990 Normals.

If you haven't already, please take our survey and provide feedback about our website: https://eccc.sondage-survey.ca/f/LanguageSelection.aspx?s=442ca660-fcf1-47c0-95a9-59707d6fd709

Hourly Data Report for April 05, 2021

ALGONQUIN PARK EAST GATE
ONTARIO
Current Station Operator: ECCC - MSC

45°32'00.000" N
78°16'00.000" W
397.00 m
6080192
71581
TNK

Download Data

Hourly Data (April 2021)
Hourly Data Report for April 5, 2021
TIME
LST
Temp Definition
°C
Dew Point Definition
°C
Rel Hum Definition
%
Precip. Amount Definition
mm

Wind Dir Definition
10's deg

Wind Spd Definition
km/h
Visibility Definition
km
Stn Press Definition
kPa
Hmdx Definition


Wind Chill Definition


Weather Definition


00:00 -3.3 -5.9 82 0.0   0   97.40     LegendNANA
01:00 -3.7 -5.8 85 0.0   0   97.38     LegendNANA
02:00 -4.2 -5.9 87 0.0   0   97.40     LegendNANA
03:00 -4.6 -6.2 88 0.0   0   97.43     LegendNANA
04:00 -5.0 -6.4 90 0.0   0   97.41     LegendNANA
05:00 -5.4 -6.6 91 0.0   0   97.42     LegendNANA
06:00 -5.5 -6.8 91 0.0 0 1   97.39   -6 LegendNANA
07:00 -2.3 -3.7 90 0.0 24 2   97.42   -3 LegendNANA
08:00 1.1 -1.8 81 0.0 0 1   97.40     LegendNANA
09:00 6.0 -5.8 42 0.0 4 6   97.37     LegendNANA
10:00 8.1 -10.0 27 0.0 3 5   97.40     LegendNANA
11:00 9.5 -11.1 22 0.0 1 6   97.34     LegendNANA
12:00 10.3 -11.0 21 0.0 34 6   97.27     LegendNANA
13:00 11.8 -12.2 17 0.0 36 7   97.19     LegendNANA
14:00 12.2 -10.9 19 0.0 2 4   97.12     LegendNANA
15:00 13.0 -9.7 20 0.0 33 3   97.08     LegendNANA
16:00 12.5 -9.2 21 0.0 30 5   97.05     LegendNANA
17:00 11.9 -9.1 22 0.0 34 6   97.03     LegendNANA
18:00 10.4 -7.6 28 0.0 6 3   97.06     LegendNANA
19:00 4.8 -4.9 49 0.0   0   97.08     LegendNANA
20:00 1.5 -6.4 55 0.0   0   97.13     LegendNANA
21:00 -0.8 -6.8 63 0.0   0   97.15     LegendNANA
22:00 -1.8 -6.0 73 0.0   0   97.14     LegendNANA
23:00 -3.0 -6.3 78 0.0   0   97.13     LegendNANA

Notes on Data Quality.

Legend

  • E = Estimated
  • M = Missing
  • NA = Not Available*
  • [empty] = Indicates an unobserved value
Date modified: